Theta_e
286 286 286 287 287 287 288 288 288 289 289 289 289 288 288 289 289 289 289 289 289 288 287 287 287 287 286 286 286 285 285 284 284 283 283 283 283 282 282 282 281 281 281 282 281 281 281 281 281 281 281 281 281 282 282 282 281 281 282 282 282 282
286 286 286 286 286 286 287 287 288 288 288 289 289 289 289 289 288 288 288 288 288 287 287 286 286 286 285 285 285 283 283 282 282 282 281 281 281 281 281 281 280 280 280 280 280 280 280 280 280 280 280 280 280 280 280 280 280 280 280 281 281 281
286 286 286 287 287 287 287 287 287 288 288 288 288 287 287 288 288 288 287 287 286 286 285 285 284 284 284 283 283 282 281 281 281 281 281 280 280 280 280 279 279 279 279 279 279 279 279 279 278 279 279 279 278 278 279 279 279 278 279 279 279 280
286 286 287 287 286 286 286 287 287 287 287 288 288 288 288 287 287 287 286 286 286 285 284 284 283 283 283 282 281 280 280 280 280 279 279 279 279 278 278 278 278 278 278 278 278 278 278 277 277 277 277 277 277 277 278 278 277 277 277 278 277 278
286 286 286 285 286 286 286 287 287 287 287 288 288 288 287 287 287 286 286 285 284 284 283 283 282 282 281 280 280 278 279 278 278 278 278 278 277 278 277 277 277 277 277 277 276 276 276 276 276 276 276 276 275 275 276 276 276 276 276 276 276 277
287 286 285 285 286 286 287 287 287 287 287 287 288 287 287 287 286 285 285 284 283 283 282 282 281 280 280 279 278 277 277 277 277 277 277 277 277 276 277 276 276 276 275 275 275 275 275 275 275 274 275 275 274 274 275 275 275 276 276 276 276 276
285 285 285 285 286 286 287 287 286 287 287 287 287 287 287 286 285 284 284 283 282 282 281 280 280 279 279 278 277 276 276 276 276 276 275 276 275 275 275 275 275 274 274 274 274 274 274 274 274 273 274 274 274 274 274 275 275 275 276 276 276 276
286 286 285 286 286 286 286 286 286 286 287 287 287 287 286 285 284 283 283 282 281 281 280 280 279 278 277 277 276 275 275 275 275 275 275 274 274 274 274 273 273 274 273 273 273 273 273 273 273 273 273 273 273 274 275 275 275 275 275 275 275 275
285 285 285 286 286 286 286 286 286 286 286 286 286 286 286 284 283 282 282 282 281 280 279 279 278 277 277 276 276 275 275 274 273 273 273 273 272 272 273 272 272 272 272 272 272 272 272 272 272 272 272 272 273 274 275 275 275 275 275 275 275 275
285 285 285 285 285 286 286 286 286 286 285 285 285 285 284 283 282 282 281 281 280 280 278 278 277 276 276 275 274 274 273 273 272 272 272 271 271 271 271 271 271 271 271 271 271 271 271 271 271 271 272 273 274 274 274 274 274 274 274 274 275 275
285 285 286 285 285 285 285 285 285 285 285 285 284 284 283 283 282 281 281 280 279 278 277 276 276 275 274 273 273 272 272 271 271 271 271 270 270 270 270 270 270 270 270 270 270 270 270 270 270 270 271 273 274 274 274 274 273 273 274 274 274 274
286 286 286 285 285 285 285 285 284 284 284 283 283 283 283 282 281 280 280 279 279 277 276 275 275 274 273 272 271 271 271 270 270 270 269 269 269 269 269 269 269 269 269 269 269 269 269 270 270 269 271 274 274 274 274 274 273 274 273 273 273 273
286 286 286 285 285 285 285 284 284 283 283 283 282 282 281 281 280 280 280 279 277 276 275 274 274 273 272 271 271 270 269 269 269 268 268 268 268 268 268 268 268 268 269 268 268 268 269 269 269 269 272 273 274 274 273 273 273 273 273 272 272 272
286 286 286 286 286 285 285 284 284 283 282 283 282 281 280 280 280 279 279 277 276 275 274 274 273 272 271 270 269 268 268 267 267 267 267 267 267 267 267 267 267 267 268 267 268 268 268 268 269 270 272 273 274 275 274 273 272 272 272 272 272 272
286 286 286 286 286 285 285 285 284 283 282 281 282 280 279 279 279 279 277 276 275 274 273 273 271 270 269 269 268 267 267 266 267 266 266 266 266 267 267 267 266 267 267 266 266 266 267 268 268 270 271 273 274 274 274 273 272 272 272 272 272 271
288 288 287 287 287 286 286 286 285 284 283 282 280 278 278 278 278 277 275 274 274 273 272 271 270 269 269 268 267 267 267 266 266 266 266 266 266 266 265 265 265 265 265 265 265 266 266 267 267 270 271 272 273 274 274 273 272 272 271 271 271 270
288 288 288 287 287 287 286 285 284 283 281 280 278 278 277 278 277 276 274 273 273 272 271 270 270 269 268 267 266 266 266 266 266 265 266 266 266 266 265 265 264 264 264 264 264 264 264 265 267 270 271 272 273 274 274 272 271 271 270 270 270 270
289 288 287 287 286 286 286 285 284 282 280 279 278 277 277 276 275 274 273 272 271 271 270 269 269 268 267 267 266 265 266 266 265 264 265 265 265 265 265 265 264 263 263 263 263 263 263 265 267 268 270 271 272 273 271 270 270 269 269 269 270 270
289 288 288 287 286 285 284 284 282 280 278 276 276 276 275 275 274 274 272 271 271 270 270 269 268 267 267 266 266 265 265 265 264 264 265 263 264 264 264 263 263 263 263 262 262 262 262 263 265 267 269 271 272 271 270 270 269 269 269 269 270 270
287 286 286 285 285 285 284 281 280 278 276 276 275 274 274 274 274 274 272 272 271 270 270 269 268 267 266 265 265 265 266 265 265 264 264 263 263 263 263 263 262 262 262 262 261 262 261 262 264 267 269 270 271 271 270 269 269 268 269 269 270 270
284 284 284 284 283 282 281 279 278 277 275 275 274 274 273 274 275 273 272 271 270 270 269 268 267 266 265 265 265 264 264 263 263 263 263 262 263 262 263 262 262 262 262 262 261 262 261 262 263 266 268 269 270 271 270 269 269 268 268 269 269 270
281 281 282 282 282 280 278 278 277 276 275 274 274 273 274 274 274 273 272 271 269 268 267 266 265 265 264 264 263 263 262 263 262 262 262 262 263 262 262 262 261 260 260 261 261 261 261 262 262 263 267 269 270 271 270 270 269 268 268 269 269 269
282 282 282 282 280 277 277 276 276 276 275 274 273 273 275 275 274 272 271 269 268 267 265 265 264 263 263 263 262 263 261 262 262 262 261 260 261 261 261 260 260 260 260 261 261 261 262 262 262 263 267 269 270 271 271 270 269 269 269 269 270 270
281 281 280 280 277 276 275 276 276 276 275 273 273 274 275 273 272 270 269 268 266 265 264 263 263 262 261 260 260 260 260 261 260 260 260 261 261 259 258 259 259 260 260 261 261 261 261 263 264 263 266 269 270 271 272 271 270 271 271 270 270 270
280 280 279 278 275 275 275 275 275 275 274 273 274 275 273 271 269 268 268 266 264 263 262 261 260 260 259 259 259 259 260 260 259 258 259 259 259 259 258 259 260 260 261 261 262 263 263 263 263 266 266 269 270 272 272 273 273 274 272 271 270 270
280 279 278 275 274 274 274 274 274 274 273 273 275 271 269 268 268 267 265 263 262 261 261 260 259 259 259 259 259 258 258 259 259 259 260 260 260 261 260 261 261 261 261 261 262 263 264 265 266 267 269 269 271 272 272 273 274 274 272 272 271 272
279 278 275 274 272 272 272 273 274 273 272 274 271 269 267 267 265 264 263 262 261 260 260 259 259 258 258 258 259 259 260 258 257 260 260 259 260 260 260 261 261 260 261 261 261 263 264 266 267 267 268 270 270 271 272 273 274 274 275 272 272 273
277 276 274 272 271 271 271 271 273 272 274 271 268 268 266 264 263 263 262 261 260 260 258 258 258 257 258 258 259 259 260 260 260 260 261 260 260 260 260 260 260 260 260 261 262 263 264 265 266 267 268 269 269 270 271 273 274 274 274 274 272 273
275 274 274 272 271 270 270 270 271 273 271 268 268 266 264 263 263 262 261 260 260 259 258 259 260 259 258 257 259 259 259 259 259 259 259 260 260 260 260 260 260 260 261 261 262 263 264 265 266 267 267 268 269 269 269 270 270 273 272 271 270 270
275 275 273 273 273 270 269 268 268 269 267 267 266 264 263 263 263 262 261 260 260 260 259 260 259 260 261 259 259 260 259 259 259 259 260 260 261 260 261 261 261 261 261 262 263 263 264 265 266 266 267 267 268 270 271 272 272 271 270 269 269 267
274 275 274 274 274 270 268 267 267 266 265 265 264 262 262 263 262 263 261 260 260 260 259 260 260 261 261 260 258 259 260 260 259 259 259 260 260 260 260 261 261 262 262 262 262 263 263 264 265 267 269 270 272 271 270 271 271 271 269 270 271 265
275 275 274 274 273 269 267 266 265 264 265 264 262 262 262 262 262 261 260 259 260 260 259 260 259 258 259 259 259 258 258 259 261 260 259 260 262 264 266 265 262 262 263 263 264 265 264 264 267 270 272 272 272 273 274 273 273 272 270 270 269 266
273 273 273 274 271 268 266 265 264 263 263 263 262 262 263 262 262 262 261 259 260 259 260 259 259 258 259 258 258 258 259 260 261 264 266 266 266 267 268 269 270 271 271 269 267 268 270 271 271 271 271 271 272 273 273 272 272 271 270 270 265 263
272 272 272 273 270 267 266 264 263 262 262 261 261 262 262 262 264 263 262 260 260 259 259 260 259 258 258 258 258 258 258 259 260 261 264 264 265 266 267 268 268 268 269 269 268 267 267 268 269 270 271 271 272 272 272 271 270 269 269 268 265 261
273 273 273 272 268 266 265 264 263 262 261 260 261 261 261 261 263 264 262 261 259 259 259 259 259 259 258 257 257 257 258 258 259 260 261 262 263 263 265 266 266 266 266 267 267 268 268 268 269 270 270 271 271 271 270 270 268 268 267 265 261 260
273 272 271 269 267 266 264 264 262 261 260 260 260 260 260 260 261 262 262 260 259 260 260 259 259 259 259 259 258 258 258 258 258 258 257 258 260 261 262 263 263 264 265 265 266 266 267 268 268 269 269 270 270 270 269 267 265 265 265 263 259 259
270 269 267 266 265 264 264 264 262 260 260 259 260 260 260 260 260 260 258 257 258 260 260 260 260 259 258 258 257 257 257 257 257 257 257 257 257 257 258 258 259 260 262 262 263 265 266 267 267 268 269 270 269 268 267 265 262 261 260 260 259 259
268 267 265 264 264 264 263 263 261 260 260 259 259 259 259 259 259 259 259 258 257 259 260 259 259 259 258 258 257 257 257 257 257 257 257 257 256 256 256 257 258 258 259 262 264 264 264 265 266 267 268 268 267 266 264 259 259 259 259 258 259 259
Wind_Speed
10 9 10 9 9 9 8 8 8 7 8 9 10 12 11 10 8 8 7 7 6 6 7 8 7 7 7 6 6 5 6 6 5 5 4 4 4 4 3 3 3 4 4 3 4 4 4 4 5 5 5 5 4 4 4 4 5 5 5 4 4 5
11 11 10 11 10 9 8 9 8 9 9 9 9 9 9 9 9 8 8 7 7 7 7 7 6 6 6 5 5 5 5 5 4 4 4 3 2 2 3 3 3 3 4 3 3 4 4 4 4 4 5 4 4 4 4 5 5 5 5 5 5 4
11 10 9 8 8 8 8 9 10 9 8 9 9 11 10 9 8 8 7 7 7 8 8 7 6 7 6 6 6 6 5 4 3 3 2 2 3 3 3 4 4 4 4 4 4 4 4 4 5 4 4 4 4 4 4 5 5 5 5 5 6 5
10 9 7 7 8 9 10 9 9 9 9 9 9 9 9 9 8 8 8 7 7 8 8 7 6 5 5 5 5 5 4 3 3 3 2 3 3 3 3 3 2 3 3 3 3 4 4 4 5 5 4 4 5 5 4 4 6 6 6 6 6 6
10 9 10 10 11 11 11 10 9 10 10 10 9 10 9 9 8 8 7 7 7 8 7 6 6 5 6 5 4 4 4 3 3 2 2 2 2 1 1 2 2 2 2 2 3 3 3 4 4 4 4 5 5 5 5 5 6 6 6 6 7 7
9 9 11 12 11 11 11 10 9 9 10 10 9 10 10 9 8 7 8 7 8 7 7 6 6 6 5 5 4 4 4 3 3 2 2 2 2 1 1 2 2 2 2 2 3 3 4 4 4 4 4 5 5 5 6 6 6 6 6 6 7 7
12 12 12 12 12 11 10 10 11 11 10 10 10 9 9 8 7 8 8 8 9 7 7 7 6 5 5 5 4 4 4 3 3 2 2 2 2 1 1 1 1 2 2 2 3 3 4 4 4 5 4 4 5 5 5 6 5 6 6 6 6 6
11 11 13 12 12 11 11 11 11 11 11 11 9 9 9 8 8 8 8 8 8 7 7 7 6 5 5 5 4 4 3 3 3 3 2 2 1 1 1 1 1 1 2 2 3 3 4 4 4 4 5 5 5 5 5 5 6 6 6 6 6 6
14 15 15 13 12 12 11 12 12 11 10 10 8 8 9 9 8 9 8 8 8 7 7 6 6 5 5 4 3 3 3 3 2 2 2 1 1 1 0 1 1 1 1 2 3 3 4 4 4 4 4 5 5 5 6 6 6 7 6 6 7 7
13 14 15 14 12 11 10 10 10 11 11 10 8 8 8 7 8 9 8 8 7 7 7 6 5 5 4 4 3 3 3 2 2 2 2 2 1 1 1 1 1 1 1 2 3 3 4 4 4 4 4 5 5 6 7 7 7 7 7 7 7 7
16 16 15 13 13 13 13 11 10 9 8 8 8 8 9 9 9 9 8 8 7 7 6 6 5 4 4 4 3 3 3 2 2 2 1 1 1 1 1 1 1 1 2 2 3 3 4 3 3 2 4 6 7 7 8 7 7 8 9 9 9 9
13 14 14 14 15 14 13 11 11 10 10 9 8 9 8 8 9 9 9 8 7 7 7 6 5 5 4 4 3 3 3 2 2 1 1 1 1 1 1 1 1 1 2 2 3 3 3 3 2 4 9 9 7 8 7 8 8 8 8 9 9 10
12 12 13 15 16 16 13 12 11 9 9 9 9 9 8 8 9 9 9 8 7 7 7 6 5 5 5 3 3 2 2 2 1 1 1 1 1 1 0 0 0 1 2 2 3 4 4 3 3 8 11 11 12 9 8 8 8 8 8 8 9 10
13 14 16 16 16 15 12 8 7 9 10 10 10 9 9 8 9 9 8 7 8 7 7 6 6 5 4 4 4 3 2 2 1 1 1 1 1 0 0 0 0 2 2 2 3 4 5 5 6 10 11 12 12 11 8 8 7 8 8 8 9 9
14 15 15 14 11 11 11 12 12 12 11 11 10 8 9 9 9 8 8 7 7 7 6 6 6 5 4 4 4 3 2 2 1 2 2 1 0 1 1 0 1 2 2 3 4 5 5 6 7 11 12 12 12 12 11 7 8 8 8 9 9 10
12 13 14 15 16 17 17 16 14 11 10 9 9 10 9 10 8 7 7 7 7 6 6 6 6 5 5 4 3 3 2 2 2 1 1 1 1 1 1 1 1 2 3 3 4 5 6 7 7 12 13 13 13 13 11 8 9 9 9 9 9 9
13 12 12 12 13 11 8 8 8 9 9 9 10 9 10 8 8 7 8 7 7 6 6 6 6 5 5 4 3 3 2 2 2 2 2 1 1 1 1 1 1 2 3 4 4 5 6 6 10 12 13 13 13 14 12 8 8 8 8 9 9 9
11 11 11 9 8 8 9 11 10 11 10 9 10 9 7 8 7 7 7 7 6 7 7 6 6 5 5 5 4 3 3 3 2 2 2 1 1 1 1 1 2 2 4 4 5 5 7 7 10 13 13 14 13 14 8 6 7 8 8 9 9 9
7 7 7 8 9 9 11 9 9 9 9 9 7 8 9 7 7 7 8 7 8 7 7 7 6 6 5 5 4 4 3 3 3 3 2 2 2 1 1 2 2 3 3 5 5 6 6 7 9 12 14 14 14 11 7 7 7 8 8 9 9 10
4 5 7 8 9 9 7 8 10 10 9 9 9 9 9 8 9 9 9 8 8 8 7 7 6 6 5 5 4 4 3 3 2 3 2 2 2 2 2 2 2 3 3 5 6 5 6 7 10 14 14 14 13 11 8 7 7 8 8 9 9 9
6 7 7 8 9 8 9 10 10 10 9 10 10 10 9 11 10 10 10 9 8 7 7 6 6 6 5 5 5 4 4 3 3 2 2 2 2 2 2 2 3 3 4 5 6 8 9 8 9 13 14 14 13 10 7 7 7 8 8 9 9 10
8 7 8 10 10 9 10 10 11 12 11 10 9 10 10 12 10 8 7 8 8 7 6 6 6 5 5 5 4 4 3 2 2 3 2 2 2 2 2 2 3 3 4 5 6 6 6 7 7 9 14 13 13 12 8 7 8 8 9 10 11 11
8 8 9 8 9 10 10 9 9 10 9 9 10 11 13 8 8 8 8 8 7 7 7 6 6 6 5 4 4 4 3 3 2 2 2 2 2 1 2 3 4 4 5 4 5 6 6 6 8 8 12 13 12 12 10 7 8 8 9 10 10 9
4 3 4 6 9 10 9 9 12 9 9 9 11 13 7 8 9 8 7 8 8 7 7 6 6 5 5 4 4 4 3 3 2 2 2 2 1 2 3 3 3 3 4 4 5 6 7 7 10 8 10 12 12 12 13 8 8 9 10 10 10 11
6 6 6 5 8 8 8 12 13 10 9 11 16 8 7 8 8 8 8 8 7 7 7 6 7 5 4 5 5 4 3 3 3 3 3 2 2 3 3 4 3 3 4 4 4 4 5 6 6 10 9 11 12 13 12 13 11 14 11 10 11 11
4 5 5 5 6 6 8 13 12 11 12 17 7 7 6 7 7 8 8 7 7 7 6 6 5 4 5 5 5 4 3 3 2 2 2 2 2 2 3 2 2 3 3 3 3 3 4 4 5 7 11 10 13 12 12 13 14 15 11 11 10 11
6 5 5 5 7 6 7 8 13 12 16 9 9 8 10 10 11 11 11 8 8 7 6 6 5 5 5 4 5 4 4 3 3 2 2 2 2 2 3 3 2 3 3 3 3 4 4 5 6 7 8 12 11 11 12 14 16 16 17 11 9 9
3 6 8 5 7 7 8 8 8 14 12 6 8 7 9 14 14 12 11 8 7 7 7 7 5 5 5 5 4 3 2 3 3 2 2 2 2 2 3 3 2 3 3 3 3 4 5 7 7 7 7 7 8 9 13 18 17 16 14 13 10 16
8 9 10 11 8 8 8 12 10 6 3 11 7 8 11 15 9 9 7 7 6 6 6 7 6 5 5 4 3 3 3 3 3 2 3 3 3 3 3 3 3 3 3 3 4 5 7 7 7 7 6 5 7 8 10 10 9 10 9 7 8 10
12 11 11 12 10 9 8 11 12 8 7 7 9 12 13 10 10 9 8 8 7 6 6 5 5 5 4 4 3 3 3 3 3 3 4 3 3 2 3 3 3 3 3 4 5 6 7 7 7 6 5 7 7 7 8 9 7 6 4 5 7 3
12 12 12 12 7 10 12 13 9 8 9 7 11 13 11 8 8 5 6 6 5 5 5 4 4 4 3 3 3 2 3 3 4 4 4 5 4 4 4 4 4 4 5 5 6 6 6 6 7 6 8 10 13 12 10 8 7 7 5 9 9 4
12 12 12 11 6 10 14 13 11 9 7 8 9 9 10 10 7 7 6 6 6 5 5 4 4 3 2 2 2 2 3 7 10 7 5 4 8 13 15 12 8 7 7 7 8 8 7 6 6 13 17 16 15 16 16 14 14 11 9 11 10 5
11 10 10 9 7 9 12 10 10 8 7 9 10 12 13 14 7 6 5 6 5 6 5 4 4 4 3 2 2 1 2 2 4 11 14 13 11 12 12 13 15 15 13 9 7 7 12 15 16 16 15 15 15 16 14 13 12 10 11 10 6 4
11 13 15 8 8 9 10 11 10 8 8 8 8 9 13 14 7 7 6 6 5 6 5 4 4 4 3 3 3 2 1 1 3 2 7 9 7 7 9 10 11 11 10 11 9 9 8 10 13 14 14 15 15 14 12 12 9 10 10 7 6 2
14 12 9 7 9 9 9 9 10 11 9 12 11 10 13 14 10 6 6 6 6 6 6 5 4 4 4 4 4 3 3 2 2 2 2 3 6 7 9 8 6 5 7 9 10 12 11 12 13 14 14 14 14 12 11 10 9 10 7 6 2 2
7 8 8 8 9 10 9 10 10 11 10 10 9 10 14 13 11 8 5 6 7 6 5 5 5 5 4 4 4 3 3 3 3 1 2 3 4 2 3 4 4 7 10 9 10 11 11 11 12 12 13 13 12 10 10 9 6 5 3 4 1 2
7 7 8 9 9 9 10 11 10 10 10 10 10 12 11 11 10 5 5 9 8 5 6 5 5 4 4 4 4 4 3 3 2 2 3 2 2 3 4 3 2 3 6 7 8 9 10 10 11 11 12 11 8 8 10 8 2 2 1 1 1 2
7 7 6 8 8 9 9 9 8 9 11 12 12 11 12 9 7 6 6 6 7 6 5 5 4 4 4 4 4 3 3 3 3 2 2 2 3 3 4 5 3 3 7 11 11 8 8 9 10 10 10 8 8 8 9 3 2 2 2 2 2 2
Wind_Direction
187 186 184 178 175 171 161 155 153 149 143 143 141 139 139 137 133 127 122 119 114 112 109 105 99 95 93 91 87 84 80 74 70 68 64 59 46 41 38 31 30 25 17 21 12 9 7 4 2 356 353 347 350 346 346 350 343 333 325 325 327 319
190 187 183 179 175 170 165 160 159 157 150 147 141 135 137 136 134 133 125 120 118 115 108 101 100 96 94 90 89 87 82 77 76 73 68 60 50 49 36 37 26 21 16 12 14 3 2 0 354 349 346 338 349 340 341 338 331 325 319 320 323 316
189 187 184 174 168 172 169 169 167 160 157 152 149 148 149 146 142 135 129 127 124 121 115 113 107 102 98 94 91 92 90 89 87 79 83 79 59 42 39 32 25 16 13 10 9 5 356 356 350 348 341 340 338 333 328 321 323 319 315 316 312 311
184 180 171 169 175 179 179 174 168 164 167 161 160 158 157 151 147 141 135 130 128 125 123 116 110 107 104 104 103 102 106 107 93 83 76 75 54 48 34 32 19 9 3 6 360 355 350 345 344 341 338 337 334 329 328 322 322 320 316 317 313 318
182 176 175 183 186 185 181 175 173 171 170 167 169 166 162 156 147 139 136 132 131 129 124 122 120 119 122 122 122 117 112 105 100 96 104 101 104 93 61 19 14 2 359 353 354 345 338 340 337 335 333 330 330 325 324 320 318 315 315 315 314 315
172 174 184 189 191 187 182 176 176 174 174 175 173 172 159 150 144 142 138 136 134 133 132 131 131 136 140 133 123 127 130 137 132 127 116 113 97 84 64 37 2 359 359 343 353 341 335 335 336 332 329 324 322 323 317 315 315 311 310 309 309 312
183 187 188 191 192 189 180 178 182 179 178 178 177 168 159 150 149 147 146 143 140 142 141 140 143 145 143 136 136 145 143 142 132 118 103 94 94 58 53 23 13 357 351 350 343 330 327 328 326 323 321 321 319 314 312 310 308 307 306 305 305 306
183 185 191 194 194 186 180 183 185 183 182 181 179 164 158 156 155 154 148 149 147 149 148 146 148 149 146 142 144 146 139 126 120 119 110 92 104 66 103 35 359 330 345 323 326 312 310 317 321 316 316 317 317 311 309 310 310 309 308 305 306 310
193 193 194 195 189 184 184 185 185 185 182 180 176 167 162 160 158 158 153 154 152 150 152 152 153 150 149 148 143 140 137 127 124 134 121 117 122 100 105 21 355 320 336 315 318 310 314 313 313 313 317 316 315 316 315 314 310 306 305 301 305 306
196 195 195 192 189 185 186 187 186 185 183 179 175 171 164 161 160 158 157 154 153 152 150 149 148 146 140 135 137 144 139 136 143 137 137 136 137 116 84 9 342 317 316 313 308 306 302 304 305 317 319 322 321 321 315 311 309 308 304 305 305 305
199 193 188 189 186 187 188 185 184 183 183 177 173 172 174 164 160 160 158 158 155 151 147 144 142 135 133 138 143 153 155 145 137 140 140 134 125 100 101 344 335 314 309 300 292 295 299 296 302 327 332 325 320 317 312 309 305 304 303 305 306 306
194 190 185 183 189 190 189 186 185 184 181 177 170 173 169 163 165 159 160 160 153 145 147 146 142 142 141 148 156 161 156 144 137 147 141 132 106 105 40 347 322 311 304 307 303 301 292 289 287 299 310 314 314 314 307 305 302 303 302 303 305 304
190 184 184 190 194 194 190 189 186 172 176 173 170 171 165 169 163 162 161 155 147 145 147 148 145 143 149 148 163 162 151 134 132 136 153 147 120 123 107 292 327 328 307 304 306 303 297 287 283 300 311 313 313 312 306 303 302 300 298 298 300 302
191 191 194 196 197 193 190 182 172 174 185 173 171 166 161 170 166 161 157 145 147 152 156 150 144 146 147 160 176 158 132 121 133 161 180 180 141 148 94 216 337 310 307 302 299 298 293 290 290 305 310 312 312 312 308 302 298 299 295 297 298 299
196 195 197 198 195 187 185 186 185 189 181 169 170 148 164 170 165 155 147 148 154 159 154 146 146 148 163 175 160 140 137 129 159 189 196 196 188 199 182 44 322 300 312 302 304 292 290 287 295 305 309 310 311 310 309 299 295 294 292 295 295 295
196 196 198 196 195 194 195 189 184 180 165 158 150 159 169 164 162 153 148 151 159 158 153 148 145 161 170 161 149 144 153 151 191 197 223 207 220 184 260 267 275 298 301 303 301 293 289 288 292 303 307 309 309 309 308 298 296 291 289 290 292 293
200 201 199 198 199 196 163 162 165 154 151 158 160 168 161 165 153 152 154 158 160 159 157 150 158 166 159 154 150 161 167 176 190 206 214 220 216 215 242 270 264 283 291 289 291 291 287 281 292 303 307 308 309 308 309 299 294 289 285 288 287 288
199 195 198 193 186 178 177 182 168 159 165 159 163 160 160 155 154 155 159 162 167 168 163 157 163 161 159 157 161 172 179 181 189 208 215 223 225 212 220 256 256 272 277 285 288 285 285 285 298 305 305 307 308 310 308 297 290 287 285 286 289 287
195 194 176 177 186 178 185 166 150 150 142 156 160 153 160 161 166 171 169 169 170 169 164 166 161 159 158 160 170 175 187 181 197 208 201 214 233 221 240 249 258 272 279 282 279 281 283 287 294 301 303 306 307 310 300 292 289 288 288 287 289 289
169 168 174 178 183 180 163 144 152 147 151 159 158 162 170 174 184 176 170 174 168 165 164 165 160 156 160 165 175 178 185 177 204 198 205 224 227 237 236 262 264 258 263 271 276 277 283 285 290 297 301 303 303 304 300 294 289 287 288 290 288 288
169 164 164 168 173 169 148 148 147 149 162 165 168 173 172 190 186 175 175 169 160 161 157 157 156 157 160 172 175 174 182 190 197 202 208 224 229 242 241 248 261 265 269 261 269 278 279 278 284 291 298 301 302 304 295 291 289 286 286 290 290 282
134 150 167 177 177 155 151 150 159 170 169 172 167 176 192 195 183 162 150 148 152 150 151 153 151 157 163 171 167 170 183 180 189 202 218 235 246 244 261 252 258 266 271 270 269 268 269 275 278 283 294 299 302 301 298 292 288 288 286 286 282 280
173 174 179 170 152 149 154 154 156 173 179 165 175 198 202 173 139 147 151 148 147 150 152 153 159 160 167 164 161 172 172 191 195 189 208 234 232 242 269 266 270 262 266 264 263 269 270 264 273 276 288 297 300 300 300 292 288 289 290 284 275 271
177 150 142 156 146 154 159 160 171 181 167 174 200 206 163 134 150 148 147 150 152 151 150 152 155 158 155 154 158 167 183 179 181 206 213 233 234 247 253 255 267 262 265 266 260 260 264 264 265 279 288 293 298 301 299 295 289 290 292 295 296 297
187 196 174 148 154 159 165 169 181 186 176 192 210 167 133 148 147 150 149 147 146 151 152 154 154 156 152 161 173 174 179 173 180 201 210 221 238 237 254 252 250 265 270 276 271 267 270 269 267 276 292 296 299 301 302 300 299 300 300 297 291 289
183 171 159 154 165 171 168 178 183 187 187 212 173 126 137 142 152 142 140 146 151 149 154 151 152 153 161 169 165 170 174 183 178 203 215 211 238 255 257 269 251 268 271 278 288 284 289 287 283 290 297 301 309 312 310 308 305 304 298 294 291 296
187 173 164 174 176 186 187 191 190 186 204 198 127 157 157 155 154 151 151 156 156 158 152 151 162 162 167 167 170 176 175 171 179 211 203 203 237 247 262 269 263 270 283 282 285 303 306 302 308 303 297 302 306 311 313 313 308 306 304 301 298 305
157 175 186 190 186 191 192 203 198 197 212 123 154 149 152 138 149 155 161 154 157 158 148 153 159 168 167 172 177 182 182 165 182 206 213 216 229 225 242 267 266 275 268 276 287 303 310 307 302 298 300 301 298 295 298 301 306 306 308 315 323 318
181 199 196 205 198 194 196 197 215 217 113 160 148 152 147 150 148 146 148 159 156 148 161 168 173 167 164 176 173 177 174 181 186 201 224 223 226 232 242 249 253 264 263 279 301 303 301 300 298 300 298 301 302 294 285 281 279 292 322 331 318 315
201 208 199 214 203 191 185 195 201 181 149 144 152 139 147 159 171 166 165 161 159 165 174 182 157 162 160 166 173 180 182 188 197 209 216 208 210 223 239 228 242 246 256 290 297 294 291 296 300 292 297 303 294 294 304 302 314 329 338 338 321 356
206 213 208 221 189 169 181 196 184 165 166 161 145 150 157 165 159 144 141 149 153 161 166 173 161 175 160 154 175 214 213 200 196 209 230 229 218 223 229 244 243 239 237 253 265 273 277 284 289 290 297 297 303 307 303 311 320 328 353 326 340 17
211 214 215 224 173 176 183 185 174 167 169 150 152 158 165 157 155 155 165 165 169 154 161 170 167 157 159 165 183 200 243 229 226 220 214 238 232 234 238 230 235 238 249 249 250 239 246 256 278 296 301 303 304 303 307 316 320 326 333 327 355 5
214 219 226 216 176 185 183 182 171 166 170 161 165 173 173 151 158 167 157 163 177 168 166 161 157 165 164 163 173 221 260 295 230 231 240 247 256 264 264 265 269 276 277 283 290 284 281 288 293 298 298 300 303 304 314 322 326 340 336 341 2 339
212 214 220 195 181 181 167 171 173 170 165 163 164 173 154 169 162 168 168 168 161 154 166 158 156 149 165 165 175 197 192 265 303 275 205 218 256 271 275 280 282 279 279 285 289 292 292 291 293 293 297 301 301 307 320 322 346 346 333 344 9 318
207 212 211 189 187 177 184 187 184 161 165 164 167 172 165 174 179 159 151 153 152 161 162 164 161 172 170 172 176 182 192 205 205 262 298 188 213 253 280 286 277 287 298 302 299 293 289 289 292 296 301 300 301 316 322 336 359 339 335 356 0 314
207 206 196 189 186 184 180 191 183 173 169 157 168 165 161 162 173 162 158 158 159 157 160 167 175 172 174 172 174 180 183 201 207 222 251 300 314 252 225 238 296 320 324 312 300 299 298 295 296 298 298 297 310 323 332 345 340 325 5 15 327 312
203 202 196 185 179 182 189 197 183 169 163 161 165 162 157 159 152 150 144 154 161 156 158 166 170 168 165 164 172 176 186 196 197 207 219 240 264 292 300 304 301 300 305 305 307 303 297 300 301 298 297 301 342 349 352 340 340 334 329 350 328 305
202 204 181 180 183 190 195 198 164 154 162 170 170 170 155 156 152 150 153 159 165 162 160 163 163 162 165 170 176 177 187 181 196 209 220 226 246 262 281 290 292 301 303 300 301 307 310 307 306 302 299 311 0 9 14 359 341 329 319 319 312 308